[[{"header":{"parameterUnit":"m.s-1","parameterCategory":1,"la1":30.2991,"la2":30.254,"lo1":-89.0895,"lo2":-89.0444,"dy":0.0017,"dx":0.0017,"nx":28,"ny":28,"refTime":"2024-12-07T09:00:00:Z","depth":0,"parameterNumber":2,"parameterNumberName":"U-component_of_WINDS"},"data":[0,0,0,0,0,0,0,0,0,0,0,0,0,0,0,0,0,0,0,0,0,0,0,0,0,0,0,0,0,0,0,0,0,0,0,0,0,0,0,0,0,0,0,0,0,0,0,0,0,0,0,0,0,0,0,0,0,0,-2.6,-2.6001,0,-2.6019,-2.6019,-2.6019,-2.5918,-2.5915,-2.5913,-2.591,-2.593,-2.5933,-2.5936,0,0,0,0,0,0,0,0,0,0,0,0,0,-2.5879,-2.5882,-2.6,-2.6001,-2.6001,-2.6019,-2.6019,-2.6019,-2.5919,-2.5915,-2.5912,-2.5909,-2.5929,-2.5933,-2.5937,0,0,0,0,0,0,0,0,0,0,0,0,0,-2.5918,-2.5883,-2.6,-2.5953,-2.5949,-2.6019,-2.6019,-2.6019,-2.592,-2.5915,-2.5911,-2.5907,-2.5928,-2.5932,-2.5937,-2.6054,0,0,-2.5952,-2.5954,0,0,0,0,0,0,0,0,-2.5916,-2.5923,-2.596,-2.5956,-2.5952,-2.5962,-2.5983,-2.6031,-2.5921,-2.5931,-2.591,-2.5905,-2.5944,-2.5947,-2.596,-2.6055,-2.6056,-2.5952,-2.5955,-2.5957,-2.5959,0,0,0,0,0,0,0,-2.5914,-2.5922,-2.6008,-2.596,-2.5956,-2.5931,-2.5932,-2.5992,-2.5962,-2.593,-2.5922,-2.5926,-2.5941,-2.5956,-2.596,-2.6056,-2.5952,-2.5957,-2.596,-2.5961,-2.6246,-2.6251,0,0,0,0,0,0,-2.5917,-2.592,-2.6007,-2.6008,-2.5923,-2.5937,-2.5937,-2.5963,-2.5961,-2.5956,-2.5929,-2.5921,-2.595,-2.5955,-2.596,-2.6097,-2.5957,-2.5962,-2.5965,-2.6242,-2.6247,-2.6252,0,0,0,0,0,0,-2.5915,-2.5926,-2.6006,-2.5962,-2.597,-2.5943,-2.5973,-2.5966,-2.598,-2.596,-2.5955,-2.595,-2.5947,-2.5954,-2.6031,-2.6096,-2.5964,-2.5969,-2.6236,-2.6243,-2.625,-2.637,0,0,0,0,0,0,-2.5912,-2.5926,-2.597,-2.5964,-2.5973,-2.6077,-2.5977,-2.5969,-2.5989,-2.5978,-2.5978,-2.5974,-2.5944,-2.6024,-2.6036,-2.61,-2.5972,-2.623,-2.6239,-2.6248,-2.636,-2.6381,-2.6398,0,0,0,0,0,-2.5908,-2.6003,-2.5972,-2.5984,-2.6027,-2.6081,-2.6086,-2.6049,-2.5994,-2.6038,-2.6025,-2.5974,-2.6087,-2.6033,-2.6045,-2.6112,-2.6226,-2.6237,-2.6247,-2.6352,-2.6377,-2.6397,0,0,0,0,0,0,-2.6018,-2.6002,-2.5967,-2.6063,-2.6074,-2.6064,-2.6118,-2.6076,-2.6103,-2.6092,-2.6044,-2.6045,-2.6131,-2.6129,-2.6069,-2.6225,-2.6147,-2.616,-2.6223,-2.6246,-2.6264,-2.6263,-2.5976,0,0,0,0,0,-2.6054,-2.6098,-2.6081,-2.6168,-2.6175,-2.6146,-2.6168,-2.6138,-2.6147,-2.6151,-2.6144,-2.6156,-2.6193,-2.6219,-2.6253,-2.6359,-2.6358,-2.6411,-2.643,-2.6445,-2.6458,-2.6514,-2.6537,-2.6287,-2.6287,-2.6287,0,0,-2.6127,-2.6124,-2.6155,-2.619,-2.6194,-2.6242,-2.615,-2.6204,-2.6239,-2.6159,-2.6232,-2.6227,-2.6237,-2.633,-2.637,-2.6331,-2.6526,-2.6459,-2.6471,-2.6475,-2.6527,-2.6551,-2.6572,-2.6294,-2.6293,-2.6292,0,0,-2.6286,-2.6288,-2.636,-2.6366,-2.6374,-2.6354,-2.6372,-2.6368,-2.6361,-2.6433,-2.6375,-2.6415,-2.6481,-2.649,-2.6504,-2.6665,-2.6619,-2.6678,-2.6776,-2.6831,-2.6851,-2.6868,-2.6926,-2.6947,-2.669,-2.669,-2.669,0,-2.6377,-2.6445,-2.6402,-2.646,-2.6477,-2.6407,-2.6479,-2.6488,-2.6507,-2.6521,-2.6476,-2.6557,-2.6559,-2.6653,-2.6692,-2.6705,-2.6724,-2.6678,-2.6851,-2.6868,-2.6883,-2.6938,-2.696,-2.6697,-2.6697,-2.6696,-2.6695,0,-2.6557,-2.6605,-2.6662,-2.6682,-2.6705,-2.677,-2.6737,-2.6766,-2.6734,-2.6719,-2.6793,-2.6793,-2.6825,-2.6845,-2.6814,-2.6934,-2.6909,-2.6859,-2.678,-2.6915,-2.6966,-2.6986,-2.6707,-2.6705,-2.6703,-2.6701,0,0,-2.6786,-2.678,-2.6802,-2.681,-2.6814,-2.685,-2.6912,-2.6943,-2.6969,-2.6984,-2.7035,-2.7092,-2.7045,-2.7061,-2.703,-2.7079,-2.7207,-2.7022,-2.7021,-2.7057,-2.7339,-2.7378,-2.7403,-2.7176,-2.718,-2.7183,-2.7339,0,-2.6941,-2.7046,-2.7009,-2.7116,-2.716,-2.7094,-2.7148,-2.7156,-2.7143,-2.7179,-2.7165,-2.7206,-2.7141,-2.715,-2.7195,-2.7182,-2.7263,-2.717,-2.7224,-2.7226,-2.7224,-2.7429,-2.747,-2.7617,-2.7358,-2.7362,-2.7364,0,-2.7137,-2.7159,-2.7271,-2.7266,-2.7284,-2.7333,-2.7358,-2.7393,-2.74,-2.7388,-2.7405,-2.7364,-2.7424,-2.7345,-2.7428,-2.7366,-2.7385,-2.7383,-2.7387,-2.7391,-2.7304,-2.744,-2.7663,-2.7686,-2.7395,-2.7392,-2.739,0,-2.7293,-2.7352,-2.7426,-2.7435,-2.7431,-2.7467,-2.7467,-2.7471,-2.7492,-2.7514,-2.7527,-2.7556,-2.7572,-2.7596,-2.7564,-2.751,-2.7652,-2.757,-2.7644,-2.7645,-2.7677,-2.7676,-2.7908,-2.7689,-2.7689,-2.7689,-2.7688,0,-2.7471,-2.7542,-2.7496,-2.7542,-2.7619,-2.7576,-2.7654,-2.7647,-2.765,-2.7694,-2.7638,-2.768,-2.7635,-2.7673,-2.7649,-2.7721,-2.7729,-2.7721,-2.7714,-2.7726,-2.7728,-2.7739,-2.7728,-2.7694,-2.7693,-2.7692,-2.7691,0,-2.766,-2.7631,-2.7708,-2.7698,-2.7697,-2.7755,-2.7746,-2.7788,-2.7771,-2.7827,-2.7837,-2.7811,-2.7853,-2.7823,-2.7865,-2.7849,-2.7944,-2.7922,-2.7942,-2.7936,-2.8011,-2.8005,-2.826,-2.8291,-2.8052,-2.8054,-2.8056,0,-2.7775,-2.7828,-2.7823,-2.7848,-2.7852,-2.7893,-2.7913,-2.7872,-2.7896,-2.7909,-2.795,-2.7986,-2.8014,-2.8084,-2.8069,-2.81,-2.8079,-2.8166,-2.8084,-2.8095,-2.8081,-2.8079,-2.8084,-2.8183,-2.8186,-2.8188,-2.819,0,-2.7983,-2.7966,-2.7998,-2.8026,-2.8052,-2.8071,-2.8086,-2.811,-2.8068,-2.8098,-2.814,-2.8161,-2.8203,-2.8241,-2.8267,-2.8267,-2.8223,-2.8216,-2.8235,-2.8249,-2.8258,-2.8254,-2.7988,-2.8211,-2.8209,-2.8207,-2.8206,-2.8205,-2.8139,-2.8183,-2.8186,-2.8223,-2.823,-2.8245,-2.8284,-2.8272,-2.8306,-2.8336,-2.831,-2.836,-2.8366,-2.8396,-2.8403,-2.8441,-2.8406,-2.8433,-2.844,-2.8447,-2.8458,-2.8251,-2.8446,-2.8445,-2.8445,-2.8444,-2.8444,0,-2.8344,-2.8343,-2.8378,-2.84,-2.843,-2.8384,-2.8398,-2.8426,-2.847,-2.8479,-2.8507,-2.8555,-2.8591,-2.8579,-2.861,-2.8644,-2.8624,-2.8654,-2.8651,-2.8652,-2.8488,-2.8469,-2.8669,-2.8669,-2.8669,-2.8669,-2.8669,-2.8669,-2.8455,-2.8527,-2.851,-2.8585,-2.8583,-2.8631,-2.8643,-2.8657,-2.8664,-2.872,-2.8749,-2.874,-2.8741,-2.8772,-2.8803,-2.8799,-2.8813,-2.8851,-2.8839,-2.8686,-2.8664,-2.8643,-2.8624,-2.8854,-2.8854,-2.9,-2.9001,-2.9002]},{"header":{"parameterUnit":"m.s-1","parameterCategory":1,"la1":30.2991,"la2":30.254,"lo1":-89.0895,"lo2":-89.0444,"dy":0.0017,"dx":0.0017,"nx":28,"ny":28,"refTime":"2024-12-07T09:00:00:Z","depth":0,"parameterNumber":3,"parameterNumberName":"V-component_of_WINDS"},"data":[0,0,0,0,0,0,0,0,0,0,0,0,0,0,0,0,0,0,0,0,0,0,0,0,0,0,0,0,0,0,0,0,0,0,0,0,0,0,0,0,0,0,0,0,0,0,0,0,0,0,0,0,0,0,0,0,0,0,0.3289,0.3289,0,0.3235,0.3234,0.3234,0.3195,0.3195,0.3194,0.3194,0.3137,0.3136,0.3134,0,0,0,0,0,0,0,0,0,0,0,0,0,0.336,0.3359,0.329,0.3289,0.3288,0.3235,0.3234,0.3234,0.3195,0.3195,0.3194,0.3194,0.3137,0.3136,0.3134,0,0,0,0,0,0,0,0,0,0,0,0,0,0.332,0.3358,0.329,0.3263,0.326,0.3235,0.3234,0.3233,0.3195,0.3195,0.3194,0.3194,0.3138,0.3136,0.3134,0.3132,0,0,0.3128,0.3128,0,0,0,0,0,0,0,0,0.3322,0.3317,0.3267,0.3264,0.3261,0.3221,0.3238,0.3199,0.3195,0.322,0.3194,0.3194,0.3165,0.3161,0.3152,0.3129,0.3127,0.3128,0.3127,0.3126,0.3126,0,0,0,0,0,0,0,0.3325,0.3319,0.3268,0.3267,0.3263,0.3253,0.3247,0.3231,0.3196,0.3217,0.3215,0.3209,0.3163,0.3154,0.315,0.3126,0.3128,0.3127,0.3125,0.3125,0.3099,0.3099,0,0,0,0,0,0,0.3332,0.3322,0.327,0.3266,0.3291,0.3252,0.3245,0.3235,0.3196,0.3189,0.3209,0.3207,0.3157,0.3152,0.3148,0.3143,0.3126,0.3125,0.3123,0.3099,0.3099,0.31,0,0,0,0,0,0,0.3334,0.3328,0.3272,0.3293,0.3285,0.3251,0.324,0.3234,0.3224,0.3189,0.3183,0.3206,0.3157,0.3151,0.3136,0.314,0.3124,0.3122,0.3098,0.3099,0.3099,0.3132,0,0,0,0,0,0,0.3336,0.3329,0.3327,0.3294,0.3284,0.3261,0.324,0.3233,0.3221,0.3218,0.3184,0.3178,0.3156,0.3139,0.3135,0.3137,0.3121,0.3098,0.3098,0.3099,0.3131,0.3134,0.3137,0,0,0,0,0,0.3338,0.3338,0.3327,0.3321,0.3282,0.3262,0.3256,0.3231,0.3221,0.322,0.3198,0.3179,0.3141,0.3138,0.3132,0.3135,0.3097,0.3098,0.3099,0.3129,0.3133,0.3137,0,0,0,0,0,0,0.3372,0.3333,0.3321,0.331,0.3289,0.3255,0.3252,0.3236,0.3217,0.3215,0.3183,0.3176,0.3165,0.3149,0.3146,0.3131,0.3117,0.3117,0.3142,0.3145,0.3148,0.3152,0.3119,0,0,0,0,0,0.3379,0.3366,0.3332,0.3326,0.3316,0.3286,0.3276,0.3258,0.3236,0.3227,0.3204,0.3182,0.3165,0.3155,0.3137,0.3129,0.3121,0.3128,0.3131,0.3134,0.3133,0.3128,0.3131,0.3103,0.3103,0.3103,0,0,0.3391,0.3368,0.3362,0.3332,0.3314,0.3301,0.3279,0.3266,0.3256,0.3224,0.321,0.3192,0.3166,0.3155,0.3149,0.3141,0.314,0.3135,0.3137,0.3135,0.3129,0.3132,0.3134,0.3104,0.3103,0.3103,0,0,0.3407,0.3389,0.3382,0.3365,0.3338,0.3319,0.3317,0.3286,0.3273,0.3258,0.3235,0.3222,0.3194,0.3176,0.3163,0.3175,0.3157,0.317,0.3186,0.3181,0.3183,0.3185,0.3189,0.3191,0.3171,0.3171,0.3171,0,0.3426,0.3406,0.338,0.3368,0.3356,0.3328,0.3321,0.3305,0.3275,0.3266,0.3258,0.3223,0.3203,0.3188,0.3191,0.3182,0.3179,0.3173,0.3185,0.3187,0.3188,0.3191,0.3193,0.3172,0.3172,0.3172,0.3172,0,0.343,0.3416,0.3414,0.3385,0.3373,0.3363,0.3336,0.3326,0.331,0.3292,0.3277,0.3253,0.3231,0.3226,0.321,0.3208,0.3204,0.3191,0.3176,0.3193,0.3195,0.3196,0.3175,0.3174,0.3174,0.3173,0,0,0.3464,0.3423,0.3422,0.3409,0.3379,0.3368,0.3358,0.3336,0.3329,0.3309,0.3299,0.3277,0.3265,0.3251,0.3233,0.3229,0.3239,0.3216,0.3215,0.3221,0.3236,0.3246,0.3248,0.3228,0.3228,0.3228,0.3238,0,0.3475,0.3455,0.3432,0.342,0.3407,0.3382,0.3373,0.3354,0.3336,0.3323,0.3304,0.3288,0.3274,0.3265,0.326,0.3239,0.3242,0.3238,0.3218,0.3218,0.3224,0.3249,0.3258,0.3269,0.3239,0.3239,0.3239,0,0.3484,0.3467,0.3454,0.3426,0.3419,0.3412,0.3391,0.3378,0.3356,0.3344,0.3329,0.331,0.3298,0.3286,0.3269,0.3267,0.3257,0.3246,0.3246,0.3242,0.3229,0.3245,0.3272,0.3273,0.3241,0.3241,0.3241,0,0.351,0.3483,0.3472,0.3462,0.3429,0.3424,0.341,0.3387,0.3376,0.3358,0.3351,0.3331,0.3321,0.3306,0.3282,0.3276,0.3268,0.3254,0.3257,0.3257,0.3255,0.3255,0.328,0.3251,0.3251,0.3251,0.3251,0,0.3524,0.3517,0.3483,0.3476,0.3468,0.3442,0.3434,0.3418,0.3398,0.3387,0.3365,0.3355,0.3325,0.3312,0.3293,0.3282,0.3277,0.3267,0.3262,0.3268,0.327,0.3261,0.3259,0.3251,0.3251,0.3251,0.3251,0,0.355,0.3528,0.3514,0.3484,0.3477,0.3472,0.3446,0.3439,0.3421,0.3408,0.3403,0.3375,0.3359,0.3334,0.331,0.3298,0.3289,0.3281,0.3297,0.3293,0.3298,0.3298,0.3317,0.3318,0.329,0.329,0.329,0,0.356,0.3554,0.3525,0.3516,0.3503,0.349,0.3479,0.3454,0.3443,0.3419,0.3414,0.3396,0.338,0.3355,0.3332,0.3314,0.3305,0.3313,0.3302,0.3309,0.3304,0.3305,0.3304,0.3315,0.3316,0.3316,0.3317,0,0.358,0.3569,0.3555,0.3536,0.3524,0.3508,0.3492,0.3486,0.3457,0.3447,0.343,0.3418,0.3394,0.3377,0.3356,0.3341,0.3324,0.3321,0.332,0.3326,0.3335,0.333,0.3303,0.332,0.332,0.3319,0.3319,0.3319,0.3598,0.3592,0.357,0.3555,0.354,0.3525,0.3516,0.3498,0.3484,0.3463,0.3449,0.3434,0.3412,0.3382,0.3369,0.3356,0.3349,0.3348,0.3348,0.3348,0.335,0.3338,0.3352,0.3352,0.3352,0.3352,0.3352,0,0.3616,0.3601,0.3588,0.3565,0.3553,0.354,0.3521,0.3512,0.3498,0.348,0.3465,0.3447,0.343,0.3407,0.3388,0.3382,0.3374,0.3378,0.3378,0.3375,0.3358,0.336,0.3385,0.3385,0.3385,0.3385,0.3385,0.3385,0.3624,0.3613,0.36,0.3581,0.3566,0.3551,0.3542,0.3528,0.3513,0.3494,0.348,0.3465,0.3445,0.3425,0.3409,0.3403,0.3397,0.3403,0.3394,0.3379,0.3376,0.3373,0.3374,0.3402,0.3402,0.3412,0.3412,0.3412]}]]